DLH10TP EDDN-EDDF

Flight info

Callsign DLH10TP
Flight time 0h 27m
Altitude 24000
Route SUKAD1C SUKAD DCT PIWAW T159 SPESA SPESA4B
Aircraft A319/M-SDE3FGHIRWY/LB1

Departure

Time 2026-04-18 09:30
Airport Nuremberg Airport (EDDN)

Arrival

Time 2026-04-18 09:57
Airport Frankfurt Main Airport (EDDF)
Time Latitude Longitude Altitude Speed Heading
2026-04-18 09:13 49.49534 11.07585 1027 ft 0 kts 188°
2026-04-18 09:16 49.49525 11.07660 1027 ft 0 kts 190°
2026-04-18 09:23 49.49540 11.07664 1026 ft 4 kts 190°
2026-04-18 09:23 49.49567 11.07672 1029 ft 4 kts 191°
2026-04-18 09:23 49.49593 11.07681 1030 ft 4 kts 198°
2026-04-18 09:23 49.49603 11.07686 1030 ft 1 kts 199°
2026-04-18 09:24 49.49604 11.07687 1030 ft 0 kts 199°
2026-04-18 09:24 49.49605 11.07684 1030 ft 0 kts 249°
2026-04-18 09:26 49.49603 11.07676 1030 ft 3 kts 249°
2026-04-18 09:26 49.49598 11.07639 1030 ft 5 kts 266°
2026-04-18 09:27 49.49604 11.07556 1027 ft 12 kts 276°
2026-04-18 09:27 49.49619 11.07399 1026 ft 17 kts 278°
2026-04-18 09:27 49.49651 11.07237 1027 ft 15 kts 333°
2026-04-18 09:27 49.49736 11.07191 1026 ft 14 kts 277°
2026-04-18 09:28 49.49754 11.07019 1022 ft 19 kts 279°
2026-04-18 09:28 49.49778 11.06797 1019 ft 23 kts 279°
2026-04-18 09:28 49.49821 11.06544 1017 ft 25 kts 317°
2026-04-18 09:28 49.49917 11.06474 1018 ft 13 kts 341°
2026-04-18 09:29 49.49993 11.06495 1018 ft 7 kts 26°
2026-04-18 09:29 49.49995 11.06556 1019 ft 6 kts 96°
2026-04-18 09:29 49.49985 11.06647 1020 ft 44 kts 99°
2026-04-18 09:29 49.49888 11.07638 1038 ft 137 kts 99°
2026-04-18 09:30 49.49739 11.09161 1816 ft 146 kts 100°
2026-04-18 09:30 49.49581 11.10761 2728 ft 161 kts 99°
2026-04-18 09:30 49.49399 11.12580 3461 ft 183 kts 99°
2026-04-18 09:30 49.49192 11.14655 4159 ft 209 kts 99°
2026-04-18 09:31 49.48959 11.17000 4986 ft 235 kts 99°
2026-04-18 09:31 49.48789 11.18699 5540 ft 252 kts 99°
2026-04-18 09:31 49.48235 11.21374 6445 ft 275 kts 120°
2026-04-18 09:31 49.46979 11.23603 6847 ft 278 kts 146°
2026-04-18 09:32 49.45221 11.24736 7032 ft 276 kts 172°
2026-04-18 09:32 49.43288 11.24644 7964 ft 279 kts 188°
2026-04-18 09:32 49.41349 11.24352 9409 ft 281 kts 185°
2026-04-18 09:32 49.39389 11.24128 10720 ft 285 kts 185°
2026-04-18 09:33 49.37386 11.23924 11885 ft 292 kts 185°
2026-04-18 09:33 49.35341 11.23696 13020 ft 300 kts 188°
2026-04-18 09:33 49.33269 11.22742 13627 ft 323 kts 210°
2026-04-18 09:33 49.31531 11.20463 14213 ft 339 kts 236°
2026-04-18 09:34 49.30599 11.17147 15033 ft 345 kts 261°
2026-04-18 09:34 49.30706 11.13527 15974 ft 349 kts 286°
2026-04-18 09:34 49.31788 11.10181 16971 ft 353 kts 301°
2026-04-18 09:34 49.33102 11.06979 17990 ft 357 kts 302°
2026-04-18 09:35 49.34452 11.03745 18900 ft 362 kts 302°
2026-04-18 09:35 49.35817 11.00479 19749 ft 366 kts 302°
2026-04-18 09:35 49.37193 10.97174 20596 ft 370 kts 302°
2026-04-18 09:35 49.38581 10.93818 21447 ft 374 kts 302°
2026-04-18 09:36 49.39978 10.90418 22300 ft 378 kts 302°
2026-04-18 09:36 49.41386 10.86979 23110 ft 383 kts 302°
2026-04-18 09:36 49.42805 10.83497 23778 ft 387 kts 301°
2026-04-18 09:36 49.44242 10.79989 23960 ft 388 kts 303°
2026-04-18 09:37 49.45924 10.76696 24012 ft 397 kts 308°
2026-04-18 09:37 49.47703 10.73418 24018 ft 400 kts 309°
2026-04-18 09:37 49.49496 10.70138 24012 ft 401 kts 309°
2026-04-18 09:37 49.51276 10.66893 24012 ft 401 kts 309°
2026-04-18 09:38 49.53080 10.63603 24015 ft 410 kts 309°
2026-04-18 09:38 49.54961 10.60158 24011 ft 429 kts 309°
2026-04-18 09:38 49.56913 10.56569 24008 ft 444 kts 309°
2026-04-18 09:38 49.58921 10.52866 24006 ft 456 kts 309°
2026-04-18 09:39 49.60973 10.49070 24004 ft 463 kts 309°
2026-04-18 09:39 49.63045 10.45232 24004 ft 468 kts 309°
2026-04-18 09:39 49.65120 10.41383 23997 ft 457 kts 309°
2026-04-18 09:39 49.67075 10.37767 24000 ft 423 kts 309°
2026-04-18 09:40 49.68916 10.34358 24000 ft 407 kts 308°
2026-04-18 09:40 49.70716 10.31012 24002 ft 403 kts 308°
2026-04-18 09:40 49.72497 10.27690 24002 ft 402 kts 308°
2026-04-18 09:40 49.74279 10.24357 24014 ft 402 kts 308°
2026-04-18 09:41 49.76060 10.21025 24000 ft 402 kts 308°
2026-04-18 09:41 49.77840 10.17694 23785 ft 401 kts 308°
2026-04-18 09:41 49.79622 10.14364 22984 ft 400 kts 308°
2026-04-18 09:41 49.81388 10.11064 22073 ft 397 kts 308°
2026-04-18 09:42 49.83143 10.07780 21238 ft 393 kts 308°
2026-04-18 09:42 49.84879 10.04528 20434 ft 390 kts 308°
2026-04-18 09:42 49.86602 10.01288 19648 ft 388 kts 308°
2026-04-18 09:42 49.88312 9.98069 18866 ft 385 kts 308°
2026-04-18 09:43 49.89986 9.94915 17953 ft 372 kts 308°
2026-04-18 09:43 49.91589 9.91883 16911 ft 364 kts 308°
2026-04-18 09:43 49.93179 9.88874 15789 ft 358 kts 308°
2026-04-18 09:43 49.94766 9.85872 14664 ft 353 kts 308°
2026-04-18 09:44 49.96290 9.82984 13547 ft 348 kts 308°
2026-04-18 09:44 49.97815 9.80088 12358 ft 343 kts 308°
2026-04-18 09:44 49.99317 9.77238 11151 ft 340 kts 308°
2026-04-18 09:44 50.00809 9.74407 9912 ft 338 kts 308°
2026-04-18 09:45 50.02335 9.71651 8645 ft 335 kts 315°
2026-04-18 09:45 50.04094 9.69347 8223 ft 323 kts 319°
2026-04-18 09:45 50.05749 9.67136 7976 ft 306 kts 317°
2026-04-18 09:45 50.07318 9.64990 7673 ft 294 kts 317°
2026-04-18 09:46 50.08822 9.62928 7374 ft 282 kts 316°
2026-04-18 09:46 50.10282 9.60930 7075 ft 277 kts 316°
2026-04-18 09:46 50.11730 9.58958 6778 ft 276 kts 317°
2026-04-18 09:46 50.13178 9.56993 6481 ft 275 kts 317°
2026-04-18 09:47 50.14534 9.54908 6180 ft 272 kts 304°
2026-04-18 09:47 50.15321 9.52276 5871 ft 267 kts 281°
2026-04-18 09:47 50.15443 9.49419 5384 ft 264 kts 268°
2026-04-18 09:47 50.15410 9.46395 5156 ft 306 kts 267°
2026-04-18 09:48 50.15352 9.42847 5164 ft 345 kts 267°
2026-04-18 09:48 50.15291 9.39027 5171 ft 356 kts 267°
2026-04-18 09:48 50.15241 9.35150 5169 ft 359 kts 268°
2026-04-18 09:48 50.15199 9.31243 5171 ft 359 kts 268°
2026-04-18 09:49 50.15160 9.27365 5171 ft 359 kts 268°
2026-04-18 09:49 50.15115 9.23470 5176 ft 358 kts 268°
2026-04-18 09:49 50.15066 9.19591 5176 ft 359 kts 267°
2026-04-18 09:49 50.15015 9.15784 5172 ft 342 kts 268°
2026-04-18 09:50 50.14968 9.12244 5178 ft 311 kts 268°
2026-04-18 09:50 50.14925 9.08983 5179 ft 284 kts 268°
2026-04-18 09:50 50.14885 9.06078 5179 ft 259 kts 268°
2026-04-18 09:50 50.14845 9.03387 5181 ft 238 kts 268°
2026-04-18 09:51 50.14807 9.00866 5183 ft 230 kts 267°
2026-04-18 09:51 50.14768 8.98382 5179 ft 228 kts 267°
2026-04-18 09:51 50.14570 8.95938 5183 ft 228 kts 255°
2026-04-18 09:51 50.14099 8.93588 5182 ft 227 kts 250°
2026-04-18 09:52 50.13557 8.91274 5184 ft 227 kts 249°
2026-04-18 09:52 50.13010 8.88963 5186 ft 227 kts 250°
2026-04-18 09:52 50.12466 8.86650 5036 ft 226 kts 250°
2026-04-18 09:52 50.11931 8.84375 4757 ft 222 kts 250°
2026-04-18 09:53 50.11402 8.82130 4450 ft 219 kts 250°
2026-04-18 09:53 50.10877 8.79903 4133 ft 218 kts 250°
2026-04-18 09:53 50.10354 8.77686 3826 ft 217 kts 251°
2026-04-18 09:53 50.09835 8.75489 3529 ft 216 kts 251°
2026-04-18 09:54 50.09318 8.73305 3220 ft 215 kts 251°
2026-04-18 09:54 50.08801 8.71140 2919 ft 212 kts 250°
2026-04-18 09:54 50.08284 8.69008 2626 ft 210 kts 251°
2026-04-18 09:54 50.07796 8.66876 2335 ft 209 kts 251°
2026-04-18 09:55 50.07297 8.64765 1987 ft 204 kts 251°
2026-04-18 09:55 50.06824 8.62791 1751 ft 188 kts 251°
2026-04-18 09:55 50.06389 8.60974 1467 ft 172 kts 251°
2026-04-18 09:55 50.05992 8.59321 1259 ft 150 kts 250°
2026-04-18 09:56 50.05658 8.57883 980 ft 134 kts 252°
2026-04-18 09:56 50.05347 8.56587 779 ft 126 kts 251°
2026-04-18 09:56 50.05042 8.55288 659 ft 131 kts 251°
2026-04-18 09:56 50.04730 8.54006 505 ft 123 kts 251°
2026-04-18 09:57 50.04448 8.52820 354 ft 104 kts 250°
2026-04-18 09:57 50.04294 8.52174 338 ft 31 kts 249°
2026-04-18 09:57 50.04223 8.51867 335 ft 31 kts 250°
2026-04-18 09:57 50.04125 8.51572 333 ft 29 kts 227°
2026-04-18 09:58 50.03974 8.51375 331 ft 21 kts 203°
2026-04-18 09:58 50.03917 8.51489 333 ft 18 kts 69°
2026-04-18 09:58 50.03967 8.51698 333 ft 23 kts 69°
2026-04-18 09:58 50.04027 8.51943 337 ft 25 kts 69°
2026-04-18 09:59 50.04089 8.52203 347 ft 26 kts 70°
2026-04-18 09:59 50.04154 8.52478 352 ft 28 kts 69°
2026-04-18 09:59 50.04223 8.52767 351 ft 29 kts 70°
2026-04-18 10:00 50.04368 8.53368 370 ft 30 kts 69°
2026-04-18 10:00 50.04406 8.53679 376 ft 30 kts 84°
2026-04-18 10:00 50.04430 8.54013 376 ft 32 kts 84°
2026-04-18 10:00 50.04454 8.54371 373 ft 35 kts 85°
2026-04-18 10:01 50.04359 8.54729 360 ft 40 kts 142°
2026-04-18 10:01 50.04174 8.54851 356 ft 24 kts 158°
2026-04-18 10:01 50.04009 8.54949 360 ft 25 kts 160°
2026-04-18 10:01 50.04012 8.54956 355 ft 2 kts 73°
2026-04-18 10:02 50.04032 8.55066 356 ft 18 kts 73°
2026-04-18 10:02 50.04078 8.55271 356 ft 22 kts 68°
2026-04-18 10:02 50.04139 8.55517 352 ft 26 kts 69°
2026-04-18 10:02 50.04201 8.55772 355 ft 24 kts 70°
2026-04-18 10:03 50.04255 8.56002 361 ft 22 kts 70°
2026-04-18 10:03 50.04316 8.56256 361 ft 27 kts 69°
2026-04-18 10:03 50.04363 8.56453 361 ft 0 kts 68°
2026-04-18 10:04 50.04371 8.56482 361 ft 8 kts 67°
2026-04-18 10:04 50.04391 8.56564 362 ft 10 kts 70°
2026-04-18 10:04 50.04425 8.56713 359 ft 18 kts 70°
2026-04-18 10:04 50.04489 8.56867 359 ft 17 kts 20°
2026-04-18 10:05 50.04602 8.56907 363 ft 18 kts 14°
2026-04-18 10:05 50.04705 8.56967 362 ft 8 kts 23°
2026-04-18 10:05 50.04734 8.56953 356 ft 4 kts 304°
2026-04-18 10:05 50.04744 8.56911 356 ft 4 kts 294°
2026-04-18 10:06 50.04746 8.56906 363 ft 1 kts 295°
2026-04-18 10:06 50.04752 8.56885 359 ft 2 kts 295°
2026-04-18 10:06 50.04753 8.56881 359 ft 0 kts 295°